Regional Weather Roundup
Issued by NWS Cleveland, OH

Home | Current Version | Previous Version | Text Only | Print | Product List | Glossary Off
Versions: 1 2 3 4 5 6 7 8 9 10 11 12 13 14 15 16 17 18 19 20 21 22 23 24 25 26 27 28 29 30 31 32 33 34 35 36 37 38 39 40 41 42 43 44 45 46 47 48 49 50

000
ASUS41 KCLE 291310
RWRCLE
OHIO REGIONAL WEATHER ROUNDUP
NATIONAL WEATHER SERVICE WILMINGTON, OH
900 AM EDT THU SEP 29 2016

NOTE: "FAIR" INDICATES FEW OR NO CLOUDS BELOW 12,000 FEET WITH NO
SIGNIFICANT WEATHER AND/OR OBSTRUCTIONS TO VISIBILITY.

OHZ001>008-015>018-024>027-034-035-043-044-291400-
   NORTHWEST OHIO

CITY           SKY/WX    TMP DP  RH WIND       PRES   REMARKS
DEFIANCE       CLOUDY    58  55  90 E3        30.09R FOG
FINDLAY        CLOUDY    57  53  86 E5        30.07R
TOLEDO EXPRESS CLOUDY    57  57 100 VRB6      30.09R FOG
TOLEDO EXEC    FAIR      58  56  93 SE7       30.09R
LIMA           PTSUNNY   56  55  97 E6        30.06R
$$

OHZ009>014-019>023-028>033-038-089-291400-
   NORTHEAST OHIO

CITY           SKY/WX    TMP DP  RH WIND       PRES   REMARKS
CLE-HOPKINS    CLOUDY    61  56  83 CALM      30.11R
CLE-LAKEFRONT  PTSUNNY   65  61  87 VRB6      30.08R
CUY CO. ARPT   PTSUNNY   64  63  94 SE14      30.09R
LORAIN-ELYRIA  CLOUDY    56  53  90 S3        30.10R
ASHTABULA      CLOUDY    62  59  90 E8        30.15R
AKRON-CANTON   CLOUDY    61  58  90 SE7       30.09R FOG
WOOSTER        CLOUDY    56  54  93 CALM      30.09S
MANSFIELD      PTSUNNY   55  55 100 E5        30.09R
YOUNGSTOWN     CLOUDY    60  57  89 E12       30.11S
$$

OHZ042-051>053-060>062-070>072-077>081-291400-
  SOUTHWEST OHIO

CITY           SKY/WX    TMP DP  RH WIND       PRES   REMARKS
CINC-COVINGTON CLOUDY    54  53  97 CALM      30.05R FOG
CINC-LUNKEN    CLOUDY    55  53  93 CALM      30.06R FOG
HAMILTON       PTSUNNY   56  53  90 CALM      30.06R FOG
DAYTON         PTSUNNY   55  54  96 E7        30.06R FOG
WRIGHT-PAT AFB PTSUNNY   56  55  99 E2        30.05R FOG
DAYTON GENERAL CLOUDY    54  52  93 CALM      30.05R FOG
WILMINGTON     CLOUDY    53  51  93 NE3       30.06R
$$

OHZ036-037-039>041-045>050-054>059-063>069-073>076-082>088-291400-
  CENTRAL AND SOUTHEAST OHIO

CITY           SKY/WX    TMP DP  RH WIND       PRES   REMARKS
COLUMBUS       CLOUDY    58  57  97 E7        30.05R
OSU AIRPORT    CLOUDY    58  57  97 CALM      30.06R
BOLTON FIELD   CLOUDY    55  55 100 CALM      30.06R FOG
RICKENBACK AFB CLOUDY    56  56  99 NE3       30.05R
NEWARK         LGT RAIN  57  55  93 NE3       30.07R
MARION         CLOUDY    57  54  89 SE3       30.07R
LANCASTER      CLOUDY    58  56  93 E7        30.06R
ZANESVILLE     PTSUNNY   56  54  93 NE5       30.07R
NEW PHILLY     CLOUDY    58  56  93 CALM      30.09R
$$




USA.gov is the U.S. government's official web portal to all federal, state and local government web resources and services.